"Pseudo-MPEC" for C3LZL01

Created 2023 Mar 27 21:22:02 UT using Find_Orb

Click here for an explanation of pseudo-MPECs

 
 Astrometry: 
     C3LZL01*1C2023 03 25.37242813 53 53.408+13 35 53.05   ~3P9b 19.65GVNEOCP703
     C3LZL01 1C2023 03 25.37774513 53 52.840+13 38 03.88   ~3P9b 19.78GVNEOCP703
     C3LZL01 1C2023 03 25.38305613 53 52.105+13 40 18.30   ~3P9b       VNEOCP703
     C3LZL01 1C2023 03 25.38836413 53 51.400+13 42 29.02   ~3P9b 19.82GVNEOCP703
     C3LZL01 mC2023 03 25.44951813 53 43.998+14 07 36.80   ~3PB7 20.77GVNEOCPV06
     C3LZL01 mC2023 03 25.44971213 53 43.991+14 07 42.74   ~3PB7 20.96GVNEOCPV06
     C3LZL01 mC2023 03 25.44990513 53 43.955+14 07 47.14   ~3PB7 19.28GVNEOCPV06
     C3LZL01 mC2023 03 25.45009613 53 43.919+14 07 50.88   ~3PB7 20.23GVNEOCPV06
     C3LZL01 IC2023 03 26BI^n'2)B8Z?T:C@6:vXJdcMWcO'xcN`3f/:x86AstrometryjMVEL01
     C3LZL01 bC2023 03 26gy?Wm;5qSE7ptnm(BS;/b/aUE,(U+I/J'fptFIs]?G!g:]0HRs0aL01
     C3LZL01 bC2023 03 26Z?a@GKqKvR(bHV.LOkEPF3k*w9\p#D*C_KDUvo'rGc4psvvHgARhL01
     C3LZL01 bC2023 03 26TCrQ\.!:R,]k1'G-Q(ZxkHHdEDfffTtLLR5Mlg3)3DeZ,bfn-4=KL01
     C3LZL01 bC2023 03 263;k'cTV%[(2p/X7wbJuM^'CFG7-6.XIJ#I+gXaF9CXc-7^S%YZcaL01
     C3LZL01 KC2023 03 26#d.nKD#^HMaq2(Ot)Bqa+XR`+ev?(]BFE7LD:0lAK=-Tm[]5Sxu1204
     C3LZL01 KC2023 03 26+[Nj$0\;R)`CU^7?P2jn@D;![*.Z%@?:H/:?wALZ'oif-bp?Rd_Q204
     C3LZL01 KC2023 03 26Y;2dIFiCe*EuxKnOl@cN6Rnw:dpG)0xbKdtepr*T=YRiN\5nE=^R204
     C3LZL01 KC2023 03 2615lP,m3pEOA0Voug%Z_9f(gH=5n[NFFclvI:/?_9:oo0DuQ$/6=OH21
     C3LZL01 KC2023 03 26^R6sFq!F=elnh`WbFpo?fnnL#.C-M'_cT+4V++uQycl1%8'(aGnUH21
     C3LZL01 KC2023 03 26of[su$_e?:J-p/8k:l.,#4x^p:_IU_+(4/bredacted;6I'/cQY:H21
     C3LZL01 KC2023 03 26T$.foWTm$-UCWd\lp%T,N5o7@1JZ?(Cclick@I8w#_herem(m#%$H21
     C3LZL01 KC2023 03 26ga@41yB=NX2?xwj3LV6un4yS[[8:Xfor!Rn2R6)HoEGFiZbjy7^gH21
     C3LZL01 KC2023 03 26jkKF;e$u@WC,cYiC(8B)^2=!(-TsEexplanationAdjwi6l/og)LH21
     C3LZL01 mC2023 03 26.45583613 52 22.973+20 18 28.87   ~3QBM 19.57GVNEOCPI52
     C3LZL01 mC2023 03 26.45604113 52 22.958+20 18 33.37   ~3QBM 19.89GVNEOCPI52
     C3LZL01 mC2023 03 26.45624613 52 22.955+20 18 36.94   ~3QBM 19.71GVNEOCPI52
     C3LZL01 mC2023 03 26.45646913 52 22.919+20 18 42.05   ~3QBM 19.31GVNEOCPI52

Station data:
(204) Schiaparelli Observatory  (N45.867930 E8.770800)  Italy.  Observer L.
   Buzzi. 0.60-m f/4.64 Newtonian + CCD0.84-m f/3.5 reflector + CCD.
(703) Catalina Sky Survey  (N32.417003 W110.732640)  US/Arizona.  Observers
   T. A. Pruyne, B. M. Africano, E. J. Christensen, G. A. Farneth, D. C.
   Fuls, A. R. Gibbs, A. D. Grauer, H. Gröller, J. A. Johnson, R. A.
   Kowalski, S. M. Larson, G. J. Leonard, D. Rankin, R. L. Seaman, F. C.
   Shelly, K. W. Wierzchoś. 0.68 m Schmidt + 10K CCD.
(H21) Astronomical Research Observatory, Westfield  (N39.483054 W87.968270)
   US/Illinois.  Observer R. Holmes. Measurers S. Foglia, L. Buzzi, T.
   Linder, R. Holmes. 0.76-m f/3.0 astrograph + CCD0.81-m f/4.0 astrograph +
   CCD0.61-m f/4.5 astrograph + CCD0.40-m f/5.32 astrograph + CCD.
(I52) Steward Observatory, Mt. Lemmon Station  (N32.442544 W110.788920)
   US/Arizona.  Observers T. A. Pruyne, B. M. Africano, E. J. Christensen, G.
   A. Farneth, D. C. Fuls, A. R. Gibbs, A. D. Grauer, H. Gröller, J. A.
   Johnson, R. A. Kowalski, S. M. Larson, G. J. Leonard, D. Rankin, R. L.
   Seaman, F. C. Shelly, K. W. Wierzchoś. 1.0-m prime focus + CCD.
(L01) Višnjan Observatory, Tičan  (N45.290897 E13.749300)  Croatia.
   Observers K. Korlević, D. Pujagic, V. Dobos. Measurers D. Pujagic, K.
   Korlević. 1.0-m f/2.9 reflector + CCD.
(V06) Catalina Sky Survey-Kuiper  (N32.416844 W110.732550)  US/Arizona.
   Observers T. A. Pruyne, B. M. Africano, E. J. Christensen, G. A. Farneth,
   D. C. Fuls, A. R. Gibbs, A. D. Grauer, H. Gröller, J. A. Johnson, R. A.
   Kowalski, S. M. Larson, G. J. Leonard, D. Rankin, R. L. Seaman, F. C.
   Shelly, K. W. Wierzchoś. 1.55-m reflector + CCD.

Orbital elements:  C3LZL01
   Perihelion 2023 Feb 3.79685 +/- 0.168 TT = 19:07:27 (JD 2459979.29685)
Epoch 2023 Mar 26.0 TT = JDT 2460029.5   Earth MOID: 0.0505      AutoNEOCP
M  22.86649375 +/- 0.28             (J2000 ecliptic)
n   0.45547922 +/- 0.0042           Peri.  300.90086 +/- 0.17
a   1.67297839 +/- 0.0103           Node   183.13427 +/- 0.006
e   0.4680325 +/- 0.00307           Incl.   39.05259 +/- 0.12
P   2.16/790.36d           H 23.80  G  0.15   U  9.1
q 0.88997000 +/- 0.000354    Q 2.45598678 +/- 0.0202
From 26 observations 2023 Mar. 25-26 (26.0 hr); mean residual 0".37
Residuals in arcseconds: 
230325 703  .16-  .36+    230326 L01  .00   .09-    230326 H21  .06-  .01+    
230325 703  1.1+  1.3-    230326 L01  .26-  .02-    230326 H21  .04-  .03+    
230325 703  .00   .93+    230326 L01  .19+  .31-    230326 H21  .02-  .10+    
230325 703  .73-  .29-    230326 L01  .35+  .14-    230326 H21  .13-  .24+    
230325 V06  .15-  .40-    230326 204  .29+  .04+    230326 I52  .22-  .31-    
230325 V06  .08+  .79+    230326 204  .06-  .08+    230326 I52  .12-  .14+    
230325 V06  .11-  .47+    230326 204  .20+  .25-    230326 I52  .14+  .34-    
230325 V06  .30-  .46-    230326 H21  .19-  .15+    230326 I52  .02-  .36+    
230326 L01  .12+  .13+    230326 H21  .06-  .22+    

Ephemerides (geocentric):
Date (UTC) HH   RA             Dec           delta  r     elong  mag " sig PA
---- --------  ------------   ------------  ------ ------ -----  --- --------
2023 03 27 21  13 50 43.139   +27 04 44.59  .10756 1.0864 143.7 20.6 .714 179
2023 03 27 22  13 50 40.301   +27 14 57.06  .10801 1.0867 143.6 20.6 .744 179
2023 03 27 23  13 50 37.472   +27 25 04.37  .10846 1.0869 143.5 20.6 .774 179
2023 03 28 00  13 50 34.652   +27 35 06.55  .10890 1.0872 143.4 20.6 .805 179
2023 03 28 01  13 50 31.841   +27 45 03.67  .10936 1.0875 143.2 20.6 .836 179
2023 03 28 02  13 50 29.039   +27 54 55.77  .10981 1.0877 143.1 20.6 .867 179
2023 03 28 03  13 50 26.246   +28 04 42.90  .11026 1.0880 143.0 20.6 .898 179
2023 03 28 04  13 50 23.461   +28 14 25.12  .11071 1.0882 142.9 20.7 .930 179
2023 03 28 05  13 50 20.685   +28 24 02.47  .11117 1.0885 142.8 20.7 .962 179
2023 03 28 06  13 50 17.917   +28 33 35.01  .11162 1.0888 142.7 20.7 0.99 179
2023 03 28 07  13 50 15.158   +28 43 02.77  .11208 1.0890 142.5 20.7 1.03 179
2023 03 28 08  13 50 12.408   +28 52 25.82  .11254 1.0893 142.4 20.7 1.06   0
2023 03 28 09  13 50 09.665   +29 01 44.20  .11299 1.0896 142.3 20.7 1.09   0
2023 03 28 10  13 50 06.932   +29 10 57.94  .11345 1.0898 142.2 20.7 1.12   0
2023 03 28 11  13 50 04.206   +29 20 07.11  .11391 1.0901 142.1 20.7 1.16   0
2023 03 28 12  13 50 01.489   +29 29 11.75  .11437 1.0904 142.0 20.7 1.19   0
2023 03 28 13  13 49 58.780   +29 38 11.90  .11483 1.0906 141.9 20.8 1.22   0
2023 03 28 14  13 49 56.079   +29 47 07.61  .11530 1.0909 141.7 20.8 1.25   0
2023 03 28 15  13 49 53.386   +29 55 58.92  .11576 1.0912 141.6 20.8 1.29   0
2023 03 28 16  13 49 50.701   +30 04 45.87  .11622 1.0914 141.5 20.8 1.32   0
2023 03 28 17  13 49 48.023   +30 13 28.52  .11669 1.0917 141.4 20.8 1.35   0
2023 03 28 18  13 49 45.354   +30 22 06.91  .11715 1.0920 141.3 20.8 1.39   0
2023 03 28 19  13 49 42.693   +30 30 41.07  .11762 1.0922 141.2 20.8 1.42   0
2023 03 28 20  13 49 40.039   +30 39 11.05  .11809 1.0925 141.1 20.8 1.46   0
2023 03 28 21  13 49 37.394   +30 47 36.89  .11855 1.0928 141.0 20.9 1.49   0
2023 03 28 22  13 49 34.756   +30 55 58.63  .11902 1.0930 140.9 20.9 1.52   0
2023 03 28 23  13 49 32.125   +31 04 16.32  .11949 1.0933 140.8 20.9 1.56   0
2023 03 29 00  13 49 29.502   +31 12 30.00  .11996 1.0936 140.7 20.9 1.59   0
2023 03 29 01  13 49 26.887   +31 20 39.70  .12043 1.0938 140.6 20.9 1.63   0
2023 03 29 02  13 49 24.279   +31 28 45.47  .12090 1.0941 140.5 20.9 1.66   0
2023 03 29 03  13 49 21.678   +31 36 47.34  .12138 1.0944 140.3 20.9 1.69   0
2023 03 29 04  13 49 19.085   +31 44 45.35  .12185 1.0946 140.2 20.9 1.73   0
2023 03 29 05  13 49 16.499   +31 52 39.55  .12232 1.0949 140.1 20.9 1.76   0
2023 03 29 06  13 49 13.921   +32 00 29.97  .12280 1.0952 140.0 21.0 1.80   0
2023 03 29 07  13 49 11.350   +32 08 16.64  .12327 1.0954 139.9 21.0 1.83   0
2023 03 29 08  13 49 08.786   +32 15 59.61  .12375 1.0957 139.8 21.0 1.87   0
2023 03 29 09  13 49 06.229   +32 23 38.92  .12422 1.0960 139.7 21.0 1.90   0
2023 03 29 10  13 49 03.679   +32 31 14.59  .12470 1.0962 139.6 21.0 1.93   0
2023 03 29 11  13 49 01.136   +32 38 46.67  .12518 1.0965 139.5 21.0 1.97   0
2023 03 29 12  13 48 58.600   +32 46 15.18  .12566 1.0968 139.4 21.0 2.00   0
2023 03 29 13  13 48 56.071   +32 53 40.18  .12613 1.0970 139.3 21.0 2.04   0
2023 03 29 14  13 48 53.549   +33 01 01.68  .12661 1.0973 139.2 21.0 2.07   0
2023 03 29 15  13 48 51.034   +33 08 19.73  .12709 1.0976 139.1 21.1 2.11   0
2023 03 29 16  13 48 48.526   +33 15 34.36  .12758 1.0978 139.0 21.1 2.14   0
2023 03 29 17  13 48 46.025   +33 22 45.60  .12806 1.0981 138.9 21.1 2.18   0
2023 03 29 18  13 48 43.530   +33 29 53.49  .12854 1.0984 138.8 21.1 2.21   0
2023 03 29 19  13 48 41.042   +33 36 58.05  .12902 1.0987 138.7 21.1 2.25   0
2023 03 29 20  13 48 38.561   +33 43 59.33  .12950 1.0989 138.6 21.1 2.28   0